STARLINK-34218, 64338

Orbit data source: Space-Track

STARLINK-34218, 64338 is a payload satellite owned by SpaceX/Seattle (US) in LEO that was launched on Tue, 10 Jun 2025 UTC via an FALCON 9 launch vehicle from the Air Force Eastern Test Range (AFETR). Payload-class satellites include a variety of spacecraft equipped with specific instruments for various scientific and technological missions. These include communications satellites like Starlink; space stations such as the ISS; scientific satellites like the Hubble; Earth observation satellites from companies like Planet Labs, Umbra, and HawkEye 360; GPS; miniature CubeSats for education and research; and military/defense satellites.

Loading next visibility...
Identifier
64338, 2025-124X
Orbit
LEO
Last TLE update
10 hours ago
Origin
Manufacturer
SpaceX/Seattle
Mission
Operational spacecraft
Bus & Motor
STARLINK V2MO, Unknown motor
Mass
575 kg wet, ~530 kg dry
Launch date (UTC)
2025-06-10 (3 weeks ago)
Launch vehicle
FALCON 9
Launch site
Air Force Eastern Test Range (AFETR)
Object type
Payload
Rocket body
Debris
Shape & HBR
Unknown
Radar Cross Section
Large (>1 m²)

Expand to show TLE details & history

TLE from 10 hours ago
0 STARLINK-34218
1 64338U 25124X   25182.16668981  .00083006  00000-0  14090-2 0  9994
2 64338  43.0001 107.1388 0001576 278.5711 167.9499 15.50514027  4483
Epoch: 2025-07-01T04:00Z
TLE epoch observation values (Epoch: 2025-07-01T04:00:01.999Z)
Latitude
43.06136°
Longitude
-147.08736°
Altitude
419.384 km
Speed
7.665 km/s
True Right ascension
12h 49m 32s
True Declination
42° 52' 53"
Sunlit
Object was in daylight at epoch
Visualization orbit readout
Latitude
13.10955°
Longitude
-69.05379°
Altitude
414.591 km
Speed
7.665 km/s
Apparent Right ascension
16h 02m 48s
Apparent Declination
-15° 08' 32"
Sunlit
Object is in full shadow
Visualization observer readout
Local Sidereal Time
01:14:39
Azimuth
291.887° WNW
Elevation
-45.846°
Doppler factor
1
Orbital elements
Apogee altitude
418.26 km
Perigee altitude
416.118 km
Semi-major axis
6,795.326 km
Eccentricity
0.00016
Inclination
43.0001°
RAAN
107.1388°
Arg. of periapsis
278.5711°
True anomaly
Unknown
Mean anomaly
167.9499°
Eccentric anomaly
Unknown
Mean motion
3.87461 °/min
Orbital period
92.91 mins
BSTAR
0.001409
Loading maneuver chart data...
Loading SW <> Apogee altitude chart data...
Loading historical data...
Loading historical data...
Loading historical data...
Loading historical data...
Loading historical data...
Loading historical data...
Loading historical data...

STARLINK-34218 Visibility forecast

Observer location: undefined°, undefined°

Span
Click to sort rows by Start time (UTC) header in descending order
Start Az.
Max El. time (UTC)
Max El. Az.
Max El.
End time (UTC)
End Az.
5 mins2025-07-01 22:23:40.967Z217.921° SW2025-07-01 22:26:40.967Z130.578° SE30.614°2025-07-01 22:28:40.967Z87.045° E
5 mins2025-07-02 00:01:40.967Z273.686° WNW2025-07-02 00:03:40.967Z359.06° N40.895°2025-07-02 00:06:40.967Z69.401° E
4 mins2025-07-02 01:39:40.967Z301.824° NW2025-07-02 01:41:40.967Z36.189° NE35.935°2025-07-02 01:43:40.967Z79.465° E
5 mins2025-07-02 03:16:40.967Z279.374° WNW2025-07-02 03:18:40.967Z208.738° SW41.413°2025-07-02 03:21:40.967Z123.174° SE
|